Regional Weather Roundup
Issued by NWS

Home | Current Version | Previous Version | Graphics & Text | Print | Product List | Glossary On
Versions: 1 2 3 4 5 6 7 8 9 10 11 12 13 14 15 16 17 18 19 20 21 22 23 24 25 26 27 28 29 30 31 32 33 34 35 36 37 38 39 40 41 42 43 44 45 46 47 48 49 50
000
ASUS43 KLOT 110203
RWRIL

ILLINOIS REGIONAL WEATHER ROUNDUP
NATIONAL WEATHER SERVICE CHICAGO/ROMEOVILLE IL
800 PM CST WED FEB 10 2016

NOTE: "FAIR" INDICATES FEW OR NO CLOUDS BELOW 12,000 FEET WITH NO
SIGNIFICANT WEATHER AND/OR OBSTRUCTIONS TO VISIBILITY.

* THESE STATIONS ARE NOT UNDER NWS QUALITY CONTROL. THEY ALSO MAY NOT
  REPORT WEATHER SUCH AS PRECIPITATION OR FOG.

ILZ001-002-007-009-015-016-024-110300-
NORTHWEST ILLINOIS

CITY           SKY/WX    TMP DP  RH WIND       PRES   REMARKS
MOLINE         CLEAR     16   2  54 NW6       30.16R WCI   7
STERLING*      CLEAR     12   1  62 N3        30.13R
$$

ILZ003-004-008-010-011-017-018-110300-
NORTH CENTRAL ILLINOIS

CITY           SKY/WX    TMP DP  RH WIND       PRES   REMARKS
ROCKFORD       PTCLDY    11   0  61 N5        30.15R WCI   3
FREEPORT*      MOCLDY     8   1  72 CALM      30.15R
ROCHELLE*      PTCLDY    11   3  70 NW6       30.14R WCI   2
DE KALB*       PTCLDY    12   3  67 N6        30.13R WCI   3
$$

ILZ005-006-012>014-019>023-110300-
NORTHEAST ILLINOIS

CITY           SKY/WX    TMP DP  RH WIND       PRES   REMARKS
CHICAGO-OHARE  MOCLDY    13   1  59 N10       30.12R WCI   0
CHICAGO-MIDWAY MOCLDY    15   0  51 NW9       30.13R WCI   3
AURORA         PTCLDY    13   3  64 N7        30.14R WCI   3
LANSING*       PTCLDY    15   3  57 NW8       30.13R WCI   5
WAUKEGAN       PTCLDY     9   0  67 CALM      30.12R
DUPAGE AIRPORT CLOUDY    11   1  64 N7        30.12R WCI   0
WHEELING       PTCLDY    12   1  61 N7        30.14S WCI   1
MORRIS*        PTCLDY    14   6  70 NW3       30.12R
NORTHERLY ISL    N/A     15   1  53 N9          N/A  WCI   3
$$

LMZ740>746-110300-
SOUTHERN LAKE MICHIGAN

STATION/POSITION SKY/WX   TEMP    WIND        PRES    VSBY  WAVE
                          AIR SEA DIR/SP/G                  HT/PER
                          (F)     (DEG/KT/KT) (MB)    (MI)  (FT/S)
HARRISON CRIB              17     320/ 13/ 15   N/A
BURNHAM HARBOR             15     310/  6/ 12   N/A
CALUMET HARBOR             15     330/  9/ 12 1019.1R
BURNS HARBOR               18     330/ 11/ 17 1019.6R
MICHIGAN CITY              17     290/ 11/ 14   N/A
$$

ILZ025>027-034>036-040-047-049-050-058-095>099-110300-
WEST-CENTRAL ILLINOIS

CITY           SKY/WX    TMP DP  RH WIND       PRES   REMARKS
QUINCY         CLOUDY    20  15  81 E6        30.13S WCI  12
MACOMB*        CLOUDY    19  14  83 CALM      30.18R
$$

ILZ028>032-037-038-041>044-048-051>054-059>061-110300-
CENTRAL ILLINOIS

CITY           SKY/WX    TMP DP  RH WIND       PRES   REMARKS
BLOOMINGTON    CLEAR     16   7  67 W9        30.14R WCI   5
DECATUR        CLOUDY    20  11  68 W7        30.16R WCI  11
PEORIA         MOCLDY    17   5  59 W5        30.16R WCI  10
LACON*         CLEAR     16   4  60 NW5       30.15S WCI   9
LINCOLN*       CLEAR     19  11  73 CALM      30.17R
SPRINGFIELD    CLOUDY    20  15  81 W6        30.17R WCI  12
TAYLORVILLE    NOT AVBL
$$

ILZ033-039-045-046-055>057-062-063-110300-
EAST-CENTRAL ILLINOIS

CITY           SKY/WX    TMP DP  RH WIND       PRES   REMARKS
CHAMPAIGN      PTCLDY    18   9  68 W10       30.14R WCI   6
MATTOON        CLOUDY    18  11  74 W6        30.14R WCI  10
$$

ILZ079-100>102-110300-
SOUTHWEST ILLINOIS

CITY           SKY/WX    TMP DP  RH WIND       PRES   REMARKS
ALTON          CLOUDY    19  18  93 SE6       30.16R WCI  11
BELLEVILLE     PTCLDY    21  19  91 CALM      30.16R
CAHOKIA*       CLOUDY    22  17  81 CALM      30.17R
SPARTA*        CLOUDY    21  19  91 CALM      30.18R
$$

ILZ064>066-069>071-074>076-080>082-084>086-088>090-092>094-110300-
SOUTH-CENTRAL ILLINOIS

CITY           SKY/WX    TMP DP  RH WIND       PRES   REMARKS
CARBONDALE     CLOUDY    22  18  85 SE3       30.18S
CAIRO*         CLOUDY    25  23  90 E6        30.18S WCI  18
MARION         FLURRIES  23  21  93 CALM      30.19S
MT. VERNON     CLOUDY    19  14  79 CALM      30.17S
CENTRALIA*     CLOUDY    21  19  91 CALM      30.16S
SALEM*         FLURRIES  21  17  85 CALM      30.17R
$$

ILZ067-068-072-073-078-083-087-091-110300-
SOUTHEAST ILLINOIS

CITY           SKY/WX    TMP DP  RH WIND       PRES   REMARKS
LAWRENCEVILLE  CLOUDY    21  13  71 W13       30.18R WCI   9
HARRISBURG*    CLOUDY    22  19  91 CALM      30.19F
ROBINSON*      CLOUDY    20  12  72 W9        30.18S WCI   9
CARMI*         CLOUDY    21  19  91 CALM      30.19R
$$

ABBREVIATIONS USED IN REMARKS
   TC - TEMPERATURE IN CELSIUS
  WCI - WIND CHILL INDEX
   HX - HEAT INDEX
  VSB - VISIBILITY
$$




USA.gov is the U.S. government's official web portal to all federal, state and local government web resources and services.